x

9415020 - Point Reyes, Ca (pryc1) Weather Station

1:54am - Thu 16th Aug 2018 All times are PDT. -7 hours from GMT.

  • Wind
    11mph, 14mph gusts
  • Sea Temp 54°f
  • Sea Pressure 1014.9mb
  • 9415020 - Point Reyes, Ca
  • 9415020 - Point Reyes, Ca

More Historic Weather Station data

Upgrade to MSW Pro to gain access to the past 30 days of data for over 8000 Wavebouys and Weather Stations around the globe.

Join

Comparision Forecast

View Surf forecast
   
Thu 08/16 1:54am 11 14 mph 1014.9mb 54f
1:48am 11 14 mph 1014.9mb 54f
1:42am 10 14 mph 1014.9mb 54f
1:36am 10 13 mph 1014.9mb 54f
1:30am 9 14 mph 1014.9mb 54f
1:24am 9 14 mph 1014.9mb 54f
1:18am 10 14 mph 1014.9mb 54f
1:12am 13 15 mph 1014.9mb 54f
1:06am 10 14 mph 1015mb 54f
1:00am 11 14 mph 1015mb 54f
12:54am 11 15 mph 1015mb 54f
12:48am 10 11 mph 1015mb 54f
12:42am 10 14 mph 1015mb 54f
12:36am 10 13 mph 1015mb 55f
12:30am 10 11 mph - -
12:24am 9 14 mph 1014.9mb 55f
12:18am 9 13 mph 1014.8mb 55f
12:12am 10 15 mph 1014.7mb 55f
12:06am 11 16 mph 1014.7mb 55f
12:00am 10 15 mph - -
Wed 08/15 11:54pm 13 15 mph 1014.7mb 55f
11:48pm 13 15 mph 1014.7mb 55f
11:42pm 10 14 mph 1014.6mb 55f
11:36pm 9 13 mph 1014.6mb 55f
11:30pm 9 13 mph 1014.6mb 55f
11:24pm 10 14 mph 1014.6mb 55f
11:18pm 9 13 mph 1014.6mb 55f
11:12pm 10 14 mph 1014.5mb 55f
11:06pm 10 15 mph 1014.5mb 55f
11:00pm 10 15 mph 1014.4mb 55f
10:54pm 13 16 mph 1014.4mb 55f
10:48pm 11 16 mph 1014.3mb 55f
10:42pm 13 15 mph 1014.3mb 55f
10:36pm 13 17 mph 1014.3mb 55f
10:30pm 11 15 mph 1014.4mb 55f
10:24pm 10 17 mph 1014.4mb 55f
10:18pm 13 17 mph 1014.4mb 55f
10:12pm 11 15 mph 1014.4mb 55f
10:06pm 10 15 mph 1014.4mb 55f
10:00pm 11 16 mph 1014.3mb 55f
9:54pm 10 17 mph 1014.3mb 55f
9:48pm 11 15 mph 1014.3mb 55f
9:42pm 11 16 mph 1014.2mb 55f
9:36pm 13 16 mph 1014.1mb 55f
9:30pm 11 15 mph 1014.1mb 55f
9:24pm 13 15 mph 1014.1mb 55f
9:18pm 11 15 mph 1014mb 55f
9:12pm 13 17 mph 1013.9mb 55f
9:06pm 11 16 mph 1013.8mb 55f
9:00pm 14 18 mph 1013.8mb 55f
8:54pm 14 16 mph 1013.7mb 55f
8:48pm 11 15 mph 1013.7mb 55f
8:42pm 11 14 mph 1013.7mb 55f
8:36pm 10 14 mph 1013.7mb 55f
8:30pm 10 14 mph 1013.6mb 55f
8:24pm 11 14 mph 1013.6mb 55f
8:18pm 10 15 mph 1013.6mb 55f
8:12pm 13 16 mph 1013.5mb 55f
8:06pm 13 15 mph 1013.5mb 55f
8:00pm 14 17 mph 1013.4mb 55f
7:54pm 13 16 mph 1013.4mb 55f
7:48pm 13 16 mph 1013.5mb 55f
7:42pm 11 17 mph 1013.5mb 55f
7:36pm 13 17 mph 1013.5mb 55f
7:30pm 13 15 mph 1013.6mb 55f
7:24pm 11 16 mph 1013.6mb 55f
7:18pm 11 15 mph 1013.6mb -
7:12pm 13 15 mph 1013.7mb 55f
7:06pm 10 15 mph 1013.7mb 55f
7:00pm 11 15 mph 1013.8mb 55f
6:54pm 11 14 mph 1013.8mb 55f
6:48pm 11 14 mph 1013.8mb 55f
6:42pm 11 14 mph 1013.8mb 55f
6:36pm 10 14 mph 1013.9mb 55f
6:30pm 11 14 mph 1014mb 55f
6:24pm 11 14 mph 1014mb 55f
6:18pm 11 15 mph 1014mb 55f
6:12pm 13 15 mph 1014mb 55f
6:06pm 13 15 mph 1014mb 55f
6:00pm 13 15 mph 1014mb 55f
5:54pm 14 15 mph 1014mb 55f
5:48pm 11 16 mph 1014.2mb 55f
5:42pm 13 16 mph 1014.2mb 55f
5:36pm 10 14 mph 1014.2mb 55f
5:30pm 13 16 mph 1014.2mb 55f
5:24pm 11 16 mph 1014.2mb 55f
5:18pm 11 16 mph 1014.2mb 55f
5:12pm 13 17 mph 1014.2mb 54f
5:06pm 14 16 mph 1014.2mb 54f
5:00pm 14 17 mph 1014.3mb 54f
4:54pm 11 16 mph 1014.2mb 54f
4:48pm 13 15 mph 1014.3mb 54f
4:42pm 11 15 mph 1014.3mb 54f
4:36pm 13 17 mph 1014.5mb 54f
4:30pm 10 16 mph 1014.5mb 54f
4:24pm 14 17 mph 1014.5mb 54f
4:18pm 11 16 mph 1014.6mb -
4:12pm 11 15 mph 1014.7mb 54f
4:06pm 11 15 mph 1014.7mb 54f
4:00pm 11 16 mph 1014.8mb 54f
3:54pm 13 16 mph 1014.8mb 54f
3:48pm 9 15 mph 1014.9mb -
3:42pm 10 15 mph 1014.8mb 54f
3:36pm 10 14 mph 1014.9mb 54f
3:30pm 9 14 mph 1015mb 54f
3:24pm 11 14 mph 1015mb 54f
3:18pm 11 15 mph 1015.1mb 54f
3:12pm 11 14 mph 1015mb 54f
3:06pm 11 15 mph 1014.9mb 54f
3:00pm 11 16 mph 1015mb 54f
2:54pm 11 14 mph 1015mb 53f
2:48pm 11 16 mph 1015.1mb 53f
2:42pm 11 16 mph 1015.1mb 53f
2:36pm 10 14 mph 1015.2mb 53f
2:30pm 10 14 mph 1015.2mb 53f
2:24pm 10 14 mph 1015.2mb 53f
2:18pm 10 14 mph 1015.3mb 53f
2:12pm 11 14 mph 1015.3mb 53f
2:06pm 9 14 mph 1015.3mb 53f
2:00pm 9 13 mph 1015.3mb 53f
1:54pm 9 13 mph 1015.2mb 53f
1:48pm 8 14 mph 1015.2mb 53f
1:42pm 9 14 mph 1015.3mb 53f
1:36pm 11 16 mph 1015.3mb 53f
1:30pm 13 15 mph 1015.3mb 53f
1:24pm 9 14 mph 1015.3mb 53f
1:18pm 9 15 mph 1015.3mb 53f
1:12pm 11 14 mph 1015.4mb 53f
1:06pm 10 13 mph 1015.3mb 53f
1:00pm 11 16 mph 1015.2mb 53f
12:54pm 11 16 mph 1015.2mb 53f
12:48pm 10 14 mph - -
12:42pm 9 15 mph 1015.3mb 53f
12:36pm 8 11 mph 1015.3mb 53f
12:30pm 9 13 mph 1015.2mb 53f
12:24pm 9 13 mph 1015.3mb 53f
12:18pm 8 13 mph 1015.3mb 53f
12:12pm 10 13 mph 1015.2mb 53f
12:06pm 9 11 mph 1015.2mb 53f
12:00pm 11 14 mph 1015.1mb 53f
11:54am 10 14 mph 1015.2mb 53f
11:48am 8 13 mph 1015.2mb 53f
11:42am 9 14 mph 1015.2mb 53f
11:36am 8 13 mph 1015.1mb 53f
11:30am 9 13 mph 1015.1mb 53f
11:24am 9 13 mph 1015.1mb 53f
11:18am 8 13 mph 1015.2mb 53f
11:12am 9 13 mph 1015.1mb 53f
11:06am 11 14 mph 1015mb 53f
11:00am 9 13 mph 1015mb 53f
10:54am 10 13 mph 1014.9mb 53f
10:48am 7 10 mph 1015mb 53f
10:42am 7 9 mph 1015mb 53f
10:36am 7 10 mph 1015mb 53f
10:30am 7 10 mph 1015mb 53f
10:24am 8 10 mph 1015mb 53f
10:18am 8 11 mph 1015mb 53f
10:12am 8 10 mph 1015mb 53f
10:06am 8 10 mph 1014.9mb 53f
10:00am 8 10 mph 1014.9mb 53f
9:54am 7 10 mph 1014.9mb 53f
9:48am 8 9 mph 1014.8mb 53f
9:42am 7 9 mph 1014.8mb 53f
9:36am 8 10 mph 1014.8mb 53f
9:30am 9 11 mph 1014.7mb 53f
9:24am 8 11 mph 1014.7mb 53f
9:18am 9 11 mph 1014.7mb 53f
9:06am 10 13 mph 1014.6mb 53f
9:00am 10 11 mph 1014.5mb 53f
8:54am 8 11 mph 1014.5mb 53f
8:48am 10 14 mph 1014.4mb 53f
8:42am 10 13 mph 1014.5mb 53f
8:36am 10 13 mph 1014.5mb 53f
8:30am 8 11 mph 1014.4mb 53f
8:24am 10 13 mph 1014.3mb 53f
8:18am 9 13 mph - -
8:12am 8 11 mph 1014.3mb 53f
8:06am 8 11 mph 1014.3mb 53f
8:00am 9 11 mph 1014.3mb 53f
7:54am 8 11 mph 1014.2mb 53f
7:48am 8 11 mph 1014.1mb 53f
7:42am 10 13 mph 1014mb 53f
7:36am 9 13 mph 1013.9mb 53f
7:30am 9 13 mph 1013.9mb 53f
7:24am 10 13 mph 1013.8mb 53f
7:18am 9 14 mph 1013.8mb 53f
7:12am 8 13 mph 1013.8mb 53f
7:06am 9 11 mph 1013.7mb 53f
7:00am 8 10 mph 1013.7mb 53f
6:54am 8 11 mph 1013.6mb 53f
6:48am 7 11 mph - -
6:36am 7 11 mph 1013.6mb 53f
6:30am 9 11 mph 1013.5mb 53f
6:24am 8 13 mph 1013.4mb 53f
6:18am 8 13 mph 1013.4mb 53f
6:12am 9 14 mph 1013.4mb 53f
6:06am 9 13 mph 1013.4mb 53f
6:00am 8 13 mph 1013.3mb 53f
5:42am 8 11 mph 1013.2mb 53f
5:36am 9 13 mph 1013.2mb 52f
5:30am 9 14 mph - -
5:24am 9 14 mph 1013.1mb 52f
5:18am 9 13 mph 1013.1mb 52f
5:12am 10 14 mph 1013.1mb 52f
5:06am 9 14 mph 1013.1mb 52f
5:00am 9 11 mph 1013mb 53f
4:54am 9 13 mph 1013mb 52f
4:48am 9 13 mph 1013mb 52f
4:36am 9 11 mph 1013mb 53f
4:30am 9 14 mph 1013mb 52f
4:24am 9 14 mph 1012.9mb 52f
4:18am 9 13 mph 1013mb 52f
4:12am 8 13 mph 1013mb 53f
4:06am 8 10 mph 1013mb 53f
4:00am 8 11 mph 1012.9mb 53f
3:54am 9 11 mph 1012.9mb 53f
3:48am 8 13 mph 1012.9mb 53f
3:42am 9 14 mph 1012.9mb 53f
3:36am 8 13 mph 1012.8mb 53f
3:30am 8 10 mph 1012.8mb 53f
3:24am 10 13 mph 1012.8mb 53f
3:18am 7 10 mph 1012.8mb 53f
3:12am 7 13 mph 1012.8mb 53f
3:06am 8 11 mph 1012.8mb 53f
3:00am 9 11 mph 1012.7mb 53f
2:54am 10 14 mph 1012.7mb 53f
2:48am 8 11 mph 1012.8mb 53f
2:42am 7 13 mph 1012.8mb 53f
2:36am 8 13 mph 1012.8mb 53f
2:30am 9 13 mph 1012.8mb 53f
2:24am 9 11 mph 1012.9mb 53f
2:18am 9 14 mph 1012.8mb 53f
2:12am 8 13 mph 1012.8mb 53f
2:06am 7 10 mph 1012.8mb 53f
2:00am 9 11 mph 1012.8mb 53f
1:54am 7 11 mph 1012.8mb 53f
1:48am 8 11 mph - -
1:42am 7 10 mph 1012.9mb 53f
1:36am 7 11 mph 1012.8mb 54f
1:30am 9 11 mph 1012.9mb 53f
1:24am 7 11 mph 1012.9mb 54f
1:18am 8 11 mph 1012.9mb 54f
1:12am 8 14 mph 1013mb 54f
1:06am 9 13 mph 1013mb 54f
1:00am 8 11 mph 1013mb 54f
12:54am 9 13 mph 1013mb 54f
12:48am 8 11 mph 1013mb 54f
12:42am 8 11 mph 1013.1mb 54f
12:36am 8 13 mph 1013.1mb 54f
12:30am 9 13 mph 1013mb -
12:24am 10 14 mph 1013mb 54f
12:18am 9 13 mph - -
12:12am 9 13 mph 1013mb 54f
12:06am 9 14 mph 1013mb 54f
12:00am 10 15 mph 1013mb 54f
Tue 08/14 11:54pm 9 14 mph 1012.9mb 54f
11:48pm 10 14 mph 1012.9mb 54f
11:42pm 9 11 mph 1012.9mb 54f
11:36pm 9 13 mph 1012.9mb 54f
11:30pm 8 11 mph 1013mb 54f
11:24pm 10 14 mph 1012.9mb 55f
11:18pm 10 15 mph 1012.9mb 55f
11:12pm 10 15 mph 1012.9mb 55f
11:06pm 9 14 mph 1013mb 55f
11:00pm 9 14 mph 1012.9mb -
10:54pm 9 14 mph 1012.9mb 55f
10:48pm 9 14 mph 1012.9mb 55f
10:42pm 9 15 mph 1012.8mb 55f
10:36pm 9 13 mph 1012.8mb 55f
10:30pm 10 14 mph 1012.8mb 55f
10:24pm 10 15 mph 1012.8mb 55f
10:18pm 9 15 mph 1012.8mb 55f
10:12pm 8 13 mph 1012.9mb 55f
10:06pm 9 13 mph 1012.8mb 55f
10:00pm 9 14 mph 1012.8mb 55f
9:54pm 10 13 mph 1012.8mb 55f
9:48pm 9 14 mph 1012.7mb 55f
9:42pm 10 14 mph 1012.7mb 55f
9:36pm 9 13 mph 1012.7mb 55f
9:30pm 10 14 mph 1012.7mb 55f
9:24pm 9 16 mph 1012.7mb 55f
9:18pm 10 13 mph 1012.7mb 55f
9:12pm 8 14 mph 1012.7mb 55f
9:06pm 11 15 mph 1012.6mb 55f
9:00pm 9 11 mph 1012.6mb 55f
8:54pm 9 13 mph 1012.6mb 56f
8:48pm 9 10 mph 1012.7mb 56f
8:42pm 7 10 mph 1012.6mb 56f
8:36pm 9 13 mph 1012.6mb 56f
8:30pm 9 13 mph 1012.5mb 56f
8:24pm 9 13 mph 1012.5mb 56f
8:18pm 8 13 mph 1012.6mb 56f
8:12pm 9 14 mph 1012.6mb 56f
8:06pm 9 11 mph 1012.6mb 56f
8:00pm 8 11 mph 1012.6mb 55f
7:54pm 8 11 mph 1012.6mb 55f
7:48pm 9 13 mph 1012.7mb 55f
7:42pm 9 11 mph 1012.7mb 55f
7:36pm 8 11 mph 1012.7mb 55f
7:30pm 9 11 mph 1012.7mb 55f
7:24pm 9 14 mph 1012.7mb 55f
7:18pm 8 11 mph 1012.8mb 55f
7:12pm 10 14 mph 1012.8mb 55f
7:06pm 9 14 mph 1012.8mb 55f
7:00pm 10 14 mph 1012.8mb 55f
6:54pm 11 16 mph 1012.8mb 55f
6:48pm 10 16 mph 1012.8mb 55f
6:42pm 11 15 mph 1012.8mb 54f
6:36pm 9 14 mph 1012.8mb 54f
6:30pm 10 13 mph 1012.9mb 54f
6:24pm 11 15 mph 1012.9mb 54f
6:18pm 11 16 mph 1012.9mb -
6:12pm 11 14 mph 1012.9mb 54f
6:06pm 11 15 mph 1012.9mb 54f
6:00pm 10 14 mph 1012.9mb 54f
5:48pm 10 14 mph 1013mb 54f
5:42pm 10 15 mph 1013.1mb 54f
5:36pm 10 15 mph 1013.1mb 54f
5:30pm 11 15 mph 1013.1mb 54f
5:24pm 11 16 mph 1013.1mb 54f
5:18pm 11 14 mph 1013.1mb 54f
5:12pm 13 15 mph 1013.1mb 54f
5:06pm 11 15 mph 1013.1mb 54f
5:00pm 10 15 mph 1013.2mb 54f
4:54pm 11 14 mph 1013.2mb 54f
4:48pm 11 16 mph 1013.2mb 54f
4:42pm 9 14 mph 1013.3mb 54f
4:36pm 11 14 mph 1013.3mb 54f
4:30pm 11 15 mph 1013.3mb 54f
4:24pm 11 14 mph 1013.3mb 54f
4:18pm 9 15 mph 1013.4mb 54f
4:12pm 11 14 mph 1013.5mb 54f
4:06pm 10 15 mph 1013.4mb 54f
4:00pm 10 14 mph 1013.5mb 54f
3:54pm 11 15 mph 1013.6mb 54f
3:48pm 10 16 mph 1013.6mb 54f
3:42pm 10 14 mph 1013.6mb 54f
3:36pm 11 16 mph 1013.7mb 55f
3:30pm 10 15 mph 1013.7mb 55f
3:24pm 11 14 mph 1013.7mb 55f
3:18pm 10 15 mph 1013.7mb 55f
3:12pm 10 14 mph 1013.7mb 55f
3:06pm 9 14 mph 1013.7mb 55f
3:00pm 8 13 mph 1013.8mb 55f
1:00pm 11 16 mph 1014.3mb 56f
12:54pm 11 16 mph 1014.4mb 56f
12:48pm 10 15 mph 1014.4mb 56f
12:42pm 10 15 mph 1014.4mb 56f
12:36pm 9 14 mph 1014.5mb 56f
12:30pm 11 16 mph 1014.4mb -
12:24pm 10 15 mph 1014.5mb 56f
12:18pm 11 14 mph 1014.4mb 56f
12:12pm 10 14 mph 1014.4mb 56f
12:06pm 8 11 mph 1014.5mb 56f
12:00pm 8 13 mph 1014.4mb 56f
11:54am 8 13 mph 1014.5mb 56f
11:48am 9 11 mph 1014.5mb -
11:42am 8 11 mph 1014.5mb 56f
11:36am 7 10 mph 1014.4mb 56f
11:30am 10 13 mph 1014.3mb 56f
11:24am 8 11 mph 1014.4mb 56f
11:18am 8 13 mph 1014.4mb 56f
11:06am 8 14 mph 1014.4mb 56f
11:00am 8 11 mph 1014.4mb 56f
10:54am 9 11 mph 1014.5mb 56f
10:48am 8 13 mph 1014.4mb 56f
10:42am 8 11 mph 1014.4mb 56f
10:36am 7 10 mph 1014.3mb 56f
10:30am 9 11 mph 1014.3mb 56f
10:24am 7 13 mph 1014.3mb 56f
10:18am 9 13 mph 1014.2mb 56f
10:12am 8 11 mph 1014.2mb 56f
10:06am 8 11 mph 1014.2mb 56f
10:00am 7 10 mph 1014.1mb 56f
9:54am 8 10 mph 1014.2mb 56f
9:48am 8 15 mph 1014.2mb 56f
9:36am 7 14 mph 1014.2mb 56f
9:30am 9 14 mph 1014.1mb 56f
9:24am 8 11 mph 1014mb 56f
9:18am 7 10 mph 1014mb 56f
9:12am 7 11 mph 1014mb 56f
9:06am 9 14 mph 1014mb 56f
9:00am 9 13 mph 1014mb 56f
8:54am 10 13 mph 1013.9mb 56f
8:48am 7 10 mph 1014mb 56f
8:42am 8 10 mph 1014mb 57f
8:36am 8 14 mph 1013.9mb 57f
8:30am 10 14 mph 1013.8mb 56f
8:24am 8 9 mph 1013.7mb 57f
8:18am 7 10 mph 1013.8mb 57f
8:12am 7 10 mph 1013.6mb 57f
8:06am 7 10 mph 1013.7mb 57f
8:00am 7 10 mph 1013.6mb 57f
7:54am 5 8 mph 1013.6mb 57f
7:48am 5 6 mph 1013.6mb 57f
7:42am 5 9 mph 1013.6mb 57f
7:36am 5 7 mph 1013.6mb 57f
7:30am 6 8 mph 1013.5mb 57f
7:24am 5 9 mph 1013.5mb 57f
7:18am 7 9 mph 1013.4mb 57f
7:12am 7 9 mph 1013.3mb 57f
7:06am 6 11 mph 1013.3mb 57f
7:00am 7 13 mph 1013.2mb 57f
6:54am 8 13 mph 1013.3mb 57f
6:48am 8 13 mph 1013.2mb 57f
6:42am 8 13 mph 1013.1mb 57f
6:36am 7 13 mph 1013.1mb 57f
6:30am 10 13 mph 1013.1mb 57f
6:24am 6 9 mph 1013.1mb 57f
6:18am 8 11 mph 1013mb 57f
6:12am 9 14 mph 1012.9mb 57f
6:06am 11 14 mph 1012.8mb 57f
6:00am 8 15 mph 1012.9mb 57f
5:54am 13 16 mph 1012.7mb 57f
5:48am 9 15 mph - -
5:42am 13 15 mph 1012.6mb 57f
5:36am 10 15 mph 1012.6mb 57f
5:30am 11 16 mph 1012.4mb 57f
5:24am 11 17 mph 1012.4mb 57f
5:18am 15 17 mph 1012.3mb 57f
5:12am 13 17 mph 1012.5mb 57f
5:06am 11 15 mph 1012.7mb 57f
5:00am 13 17 mph 1012.7mb 57f
4:54am 13 16 mph 1012.6mb 57f
4:48am 11 15 mph - -
4:42am 11 16 mph 1012.6mb 57f
4:36am 13 16 mph 1012.6mb 57f
4:30am 11 16 mph 1012.6mb 57f
4:24am 10 16 mph 1012.5mb 57f
4:18am 13 17 mph 1012.5mb 57f
4:12am 13 18 mph 1012.4mb 57f
4:06am 14 21 mph 1012.4mb 57f
4:00am 16 21 mph 1012.2mb 57f
3:54am 17 22 mph 1012.2mb 57f
3:48am 17 22 mph 1012.2mb 57f
3:42am 17 21 mph 1012.2mb 57f
3:36am 16 18 mph 1012.4mb 57f
3:30am 16 21 mph 1012.5mb 57f
3:24am 17 22 mph 1012.5mb 57f
3:18am 17 22 mph 1012.5mb 57f
3:12am 20 24 mph 1012.5mb 57f
3:06am 17 26 mph 1012.5mb 57f
3:00am 20 25 mph 1012.5mb 57f
2:54am 20 26 mph 1012.5mb 57f
2:48am 21 25 mph 1012.4mb 57f
2:42am 20 25 mph 1012.5mb 57f
2:36am 20 26 mph 1012.5mb 57f
2:30am 21 28 mph 1012.4mb 57f
2:24am 22 26 mph 1012.5mb 57f
2:18am 22 26 mph 1012.5mb 57f
2:12am 20 28 mph 1012.6mb 57f
2:06am 20 26 mph 1012.6mb 57f
2:00am 22 26 mph 1012.7mb 57f
1:54am 20 25 mph 1012.9mb 57f
1:48am 21 26 mph 1012.9mb 57f
1:42am 21 24 mph 1013mb 57f
1:36am 20 25 mph 1013.1mb 57f
1:30am 20 24 mph 1013mb 57f
1:24am 20 23 mph 1013.1mb 57f
1:18am 17 24 mph 1013.2mb 57f
1:12am 21 25 mph 1013.2mb 57f
1:06am 18 24 mph 1013.2mb 57f
1:00am 21 24 mph 1013.2mb 57f
12:54am 21 29 mph 1013.2mb 57f
12:48am 22 26 mph 1013.2mb 57f
12:42am 21 24 mph 1013.3mb 57f
12:36am 17 23 mph 1013.4mb 57f
12:30am 17 24 mph 1013.4mb 57f
12:24am 21 25 mph 1013.3mb 57f
12:18am 21 29 mph 1013.3mb 57f
12:12am 23 29 mph 1013.2mb 57f
12:06am 23 29 mph 1013.1mb 57f
12:00am 25 32 mph 1013mb 57f
Mon 08/13 11:54pm 26 31 mph 1012.9mb 57f
11:48pm 23 33 mph 1012.8mb 57f
11:42pm 25 32 mph 1012.8mb 57f
11:36pm 23 32 mph 1012.8mb 57f
11:30pm 23 30 mph 1012.7mb -
11:24pm 22 28 mph 1012.8mb 57f
11:18pm 22 28 mph 1012.9mb 57f
11:12pm 17 24 mph 1013mb 57f
11:06pm 15 26 mph 1013mb 57f
11:00pm 14 23 mph 1013.1mb 57f
10:54pm 17 26 mph 1013.2mb 58f
10:48pm 16 23 mph 1013.3mb 58f
10:36pm 15 24 mph 1013.3mb 58f
10:30pm 11 20 mph 1013.3mb 58f
10:24pm 11 20 mph 1013.3mb 58f
10:18pm 13 22 mph 1013.4mb 58f
10:12pm 15 20 mph 1013.3mb 58f
10:06pm 11 18 mph 1013.4mb 58f
10:00pm 10 18 mph 1013.5mb 58f
9:54pm 10 17 mph 1013.6mb 58f
9:48pm 10 14 mph 1013.7mb 58f
9:42pm 9 16 mph 1013.7mb 58f
9:36pm 9 16 mph 1013.7mb 58f
9:30pm 9 17 mph 1013.6mb 58f
9:24pm 8 16 mph 1013.6mb 58f
9:18pm 9 14 mph 1013.6mb 58f
9:12pm 10 15 mph 1013.6mb 58f
9:06pm 9 15 mph 1013.6mb 58f
9:00pm 11 16 mph 1013.6mb 58f
8:54pm 9 16 mph 1013.5mb 58f
8:48pm 10 18 mph 1013.4mb 58f
8:42pm 13 16 mph 1013.3mb 58f
8:36pm 11 20 mph 1013.3mb 58f
8:30pm 13 20 mph 1013.4mb 58f
8:24pm 9 17 mph 1013.4mb 58f
8:18pm 10 15 mph 1013.4mb 58f
8:12pm 14 17 mph 1013.4mb 58f
8:06pm 9 14 mph 1013.5mb 58f
8:00pm 11 17 mph 1013.6mb 58f
7:54pm 11 15 mph 1013.6mb 58f
7:48pm 9 15 mph 1013.6mb 58f
7:42pm 9 13 mph 1013.6mb 58f
7:36pm 9 14 mph 1013.6mb 58f
7:30pm 9 14 mph 1013.7mb 58f
7:24pm 11 14 mph 1013.7mb 58f
7:18pm 9 14 mph 1013.7mb 57f
7:12pm 9 13 mph 1013.7mb 58f
7:06pm 9 14 mph 1013.7mb 57f
7:00pm 9 14 mph 1013.8mb 58f
6:54pm 9 13 mph 1013.8mb 58f
6:48pm 8 11 mph 1013.7mb 57f
6:42pm 8 11 mph 1013.7mb 57f
6:36pm 8 13 mph 1013.7mb 58f
6:30pm 9 15 mph 1013.6mb 58f
6:24pm 9 14 mph 1013.6mb 58f
6:18pm 11 18 mph 1013.6mb 58f
6:12pm 11 16 mph 1013.6mb 57f
6:06pm 10 16 mph 1013.7mb 58f
6:00pm 11 22 mph 1013.7mb 58f
5:48pm 13 21 mph 1013.7mb 58f
5:42pm 13 17 mph 1013.8mb 57f
5:36pm 14 18 mph 1013.8mb 57f
5:30pm 16 21 mph 1013.8mb 57f
5:24pm 13 20 mph 1013.8mb 57f
5:18pm 16 18 mph 1013.8mb 57f
5:12pm 13 17 mph 1013.8mb 57f
5:06pm 14 18 mph 1013.8mb 57f
5:00pm 14 16 mph 1013.9mb 57f
4:54pm 10 14 mph 1013.9mb 57f
4:48pm 9 16 mph 1013.9mb 57f
4:42pm 14 17 mph 1013.8mb 57f
4:36pm 13 17 mph 1013.9mb 57f
4:30pm 13 16 mph 1013.9mb 57f
4:24pm 11 16 mph 1014mb 57f
4:18pm 14 18 mph 1014mb 57f
4:12pm 13 15 mph 1014.2mb 57f
4:06pm 10 15 mph 1014.2mb 57f
4:00pm 9 14 mph 1014.3mb 57f
3:18pm 8 11 mph 1014.9mb 57f
3:12pm 10 14 mph 1014.9mb 57f
3:06pm 8 13 mph 1015mb 57f
3:00pm 7 13 mph 1015mb 57f
2:54pm 10 13 mph 1015.1mb 57f
2:48pm 9 13 mph 1015.2mb 57f
2:42pm 9 13 mph 1015.2mb 57f
2:36pm 9 11 mph 1015.3mb 57f
2:30pm 10 14 mph 1015.3mb 57f
2:24pm 8 10 mph 1015.4mb 57f
2:18pm 7 11 mph 1015.3mb 57f
2:12pm 5 11 mph 1015.4mb 57f
2:06pm 7 14 mph 1015.4mb 56f
2:00pm 9 15 mph 1015.4mb 56f
1:54pm 9 14 mph 1015.5mb 56f
1:48pm 9 15 mph 1015.5mb 56f
1:42pm 9 11 mph 1015.7mb 56f
1:36pm 7 16 mph 1015.7mb 56f
1:30pm 10 14 mph 1015.7mb 56f
1:24pm 8 16 mph 1015.7mb 56f
1:18pm 9 14 mph 1015.7mb 56f
1:12pm 10 14 mph 1015.8mb 56f
1:06pm 6 9 mph 1015.8mb 56f
1:00pm 8 13 mph 1015.7mb 56f
12:54pm 8 11 mph 1015.7mb 56f
12:48pm 9 18 mph 1015.7mb 56f
12:42pm 11 16 mph 1015.7mb 56f
12:36pm 8 14 mph 1015.7mb 56f
12:30pm 9 14 mph 1015.8mb 56f
12:24pm 8 10 mph 1015.8mb 56f
12:18pm 8 11 mph 1015.9mb 56f
12:12pm 9 13 mph 1016mb 56f
12:06pm 8 11 mph 1016mb 56f
12:00pm 9 13 mph 1016mb 56f
11:54am 8 14 mph 1016.1mb 56f
11:48am 7 10 mph - -
11:42am 7 11 mph 1016mb 56f
11:36am 8 13 mph 1016mb 56f
11:30am 8 13 mph 1015.9mb 56f
11:24am 8 13 mph 1015.9mb 56f
11:18am 7 10 mph 1015.9mb 56f
11:12am 9 11 mph 1015.9mb 56f
11:06am 9 11 mph 1016mb 56f
11:00am 8 11 mph 1016mb 56f
10:54am 6 9 mph 1016mb 56f
10:48am 7 9 mph 1015.9mb 56f
10:42am 7 9 mph 1015.8mb 56f
10:36am 3 10 mph 1015.8mb 56f
10:30am 6 8 mph 1015.7mb 56f
10:24am 6 14 mph 1015.6mb 56f
10:18am 8 11 mph 1015.5mb 56f
10:12am 7 11 mph 1015.5mb 56f
10:06am 7 11 mph 1015.5mb 56f
10:00am 7 13 mph 1015.4mb 56f
9:54am 7 11 mph 1015.3mb 56f
9:48am 10 15 mph 1015.3mb 56f
9:42am 9 15 mph 1015.2mb 56f
9:36am 11 16 mph 1015.1mb 56f
9:30am 13 17 mph 1015.1mb 56f
9:24am 15 18 mph 1015.1mb 56f
9:18am 15 18 mph 1015.1mb 56f
9:12am 11 15 mph 1015.2mb 56f
9:06am 13 16 mph 1015.2mb 56f
9:00am 13 15 mph 1015.1mb 56f
8:54am 9 13 mph 1015mb 56f
8:48am 9 14 mph 1015mb 56f
8:42am 9 16 mph 1015mb 56f
8:36am 9 14 mph 1014.9mb 56f
8:30am 8 14 mph 1014.9mb 56f
8:24am 13 16 mph 1014.7mb 56f
8:18am 13 17 mph 1014.6mb 56f
8:06am 8 17 mph 1014.5mb 56f
8:00am 13 16 mph - -
7:54am 8 14 mph 1014.6mb 56f
7:48am 13 16 mph 1014.4mb 56f
7:42am 7 15 mph 1014.4mb 56f
7:36am 6 13 mph 1014.3mb 56f
7:30am 6 11 mph 1014.2mb 56f
7:24am 8 14 mph 1014.2mb 56f
7:18am 7 15 mph 1014.2mb 56f
7:12am 10 17 mph 1014.2mb 56f
7:06am 9 20 mph 1014.1mb 56f
7:00am 15 20 mph 1014mb 56f
6:54am 15 18 mph 1013.9mb 56f
6:48am 13 16 mph 1013.8mb 56f
6:42am 10 16 mph 1013.8mb 56f
6:36am 14 16 mph 1013.7mb 56f
6:30am 9 14 mph - 56f
6:24am  -  mph - 56f
6:18am 6 11 mph 1013.6mb 56f
6:12am 10 13 mph 1013.6mb 56f
6:06am 7 10 mph 1013.6mb 56f
6:00am 7 10 mph 1013.5mb 56f
5:42am 8 13 mph 1013.5mb 56f
5:36am 10 13 mph 1013.5mb 57f
5:30am 10 15 mph 1013.5mb 56f
5:24am 10 14 mph 1013.6mb 56f
5:18am 8 14 mph 1013.5mb 56f
5:12am 11 17 mph 1013.5mb 56f
5:06am 9 16 mph 1013.6mb 56f
5:00am 9 18 mph 1013.6mb 56f
4:18am 13 18 mph 1013.3mb 56f
4:06am 10 16 mph 1013.2mb 56f
4:00am 10 17 mph 1013.2mb 56f
3:54am 13 22 mph 1013.2mb 56f
3:48am 13 18 mph 1013.2mb 56f
3:42am 13 18 mph 1013.3mb 56f
3:36am 13 20 mph 1013.2mb 56f
3:30am 14 20 mph 1013.2mb 56f
3:24am 11 18 mph 1013.3mb 56f
3:18am 11 18 mph 1013.3mb 56f
3:12am 11 16 mph 1013.2mb 56f
3:06am 10 18 mph 1013.2mb 56f
3:00am 13 18 mph 1013.2mb 56f
2:54am 11 15 mph 1013.2mb 56f
2:48am 10 14 mph 1013.2mb -
2:42am 9 15 mph 1013.2mb 56f
2:36am 11 15 mph 1013.2mb 56f
2:30am 10 14 mph 1013.3mb 56f
2:24am 11 14 mph 1013.4mb 57f
2:18am 11 17 mph 1013.4mb 56f
2:12am 17 21 mph 1013.5mb 56f
2:06am 14 20 mph 1013.5mb 56f
2:00am 11 18 mph 1013.5mb 56f
1:54am 13 18 mph 1013.6mb 56f
1:48am 14 18 mph 1013.5mb 56f
1:42am 11 20 mph 1013.5mb 56f
1:36am 13 21 mph 1013.5mb 56f
1:30am 13 18 mph 1013.6mb 56f
1:24am 15 18 mph 1013.5mb 56f
1:18am 13 21 mph 1013.7mb 56f
1:12am 15 18 mph 1013.7mb 56f
1:06am 11 15 mph 1013.7mb 56f
1:00am 11 20 mph 1013.7mb 56f
12:54am 13 21 mph 1013.7mb 56f
12:48am 13 16 mph 1013.7mb 56f
12:42am 9 17 mph 1013.8mb 56f
12:36am 13 18 mph 1013.8mb 56f
12:30am 10 17 mph 1013.8mb 56f
12:24am 13 20 mph 1013.8mb 56f
12:18am 14 18 mph 1013.7mb 56f
12:06am 16 22 mph 1013.7mb 56f
12:00am 9 15 mph 1013.7mb 56f
Sun 08/12 11:54pm 13 17 mph 1013.7mb 56f
11:48pm 11 20 mph 1013.6mb 56f
11:42pm 14 17 mph 1013.6mb 56f
11:36pm 14 17 mph 1013.6mb 56f
11:30pm 11 16 mph 1013.6mb 56f
11:24pm 13 18 mph 1013.6mb 56f
11:18pm 9 14 mph 1013.7mb 56f
11:12pm 9 14 mph 1013.6mb 56f
11:06pm 10 14 mph 1013.6mb 56f
11:00pm 10 14 mph 1013.5mb 56f
10:12pm 7 10 mph 1013.7mb 56f
10:06pm 7 13 mph 1013.7mb 56f
10:00pm 6 13 mph 1013.8mb 56f
9:54pm 8 11 mph 1013.7mb 56f
9:48pm 7 9 mph 1013.6mb 56f
9:42pm 5 10 mph 1013.6mb 56f
9:36pm 8 11 mph 1013.6mb 56f
9:30pm 9 13 mph 1013.5mb 56f
9:24pm 7 9 mph 1013.5mb 56f
9:18pm 6 9 mph - -
9:12pm 8 10 mph 1013.4mb 57f
9:06pm 6 8 mph 1013.3mb 57f
9:00pm 6 8 mph 1013.3mb 57f
8:18pm 6 9 mph 1013.1mb 57f
8:12pm 7 9 mph 1013.1mb 57f
8:06pm 5 7 mph 1013.1mb 57f
8:00pm 5 6 mph 1013.1mb 57f
7:54pm 6 10 mph 1013mb 57f
7:48pm 6 8 mph 1013mb -
7:42pm 5 8 mph 1013mb 57f
7:36pm 7 9 mph 1013mb 57f
7:30pm 5 9 mph 1013mb 57f
7:24pm 6 9 mph 1012.9mb 57f
7:18pm 6 8 mph 1012.9mb 57f
7:12pm 7 10 mph 1012.9mb 57f
7:06pm 7 13 mph 1012.9mb 57f
7:00pm 7 13 mph 1012.9mb 57f
6:54pm 9 15 mph 1013mb 57f
6:48pm 7 10 mph 1013mb 57f
6:42pm 9 14 mph 1013mb 57f
6:36pm 8 9 mph 1013.1mb 57f
6:30pm 7 10 mph 1013.1mb 57f
6:24pm 8 11 mph 1013.2mb 57f
6:18pm 8 11 mph 1013.2mb 57f
6:12pm 7 11 mph 1013.2mb 57f
6:06pm 7 10 mph 1013.2mb 57f
6:00pm 9 13 mph 1013.3mb 57f
5:54pm 8 13 mph 1013.2mb 57f
5:48pm 8 13 mph 1013.2mb 57f
5:42pm 9 14 mph 1013.2mb 57f
5:36pm 10 14 mph 1013.1mb 57f
5:30pm 11 15 mph 1013.1mb 57f
5:24pm 13 17 mph 1013.1mb 57f
5:18pm 11 14 mph 1013.1mb 57f
5:12pm 13 15 mph 1013.2mb 57f
5:06pm 14 17 mph 1013.3mb 56f
5:00pm 11 17 mph 1013.3mb 56f
4:54pm 11 15 mph 1013.3mb 56f
4:48pm 13 16 mph 1013.3mb 56f
4:42pm 13 16 mph 1013.3mb 56f
4:36pm 13 16 mph 1013.4mb 56f
4:30pm 13 18 mph 1013.5mb 56f
4:24pm 14 18 mph 1013.4mb 56f
4:18pm 14 18 mph 1013.4mb 56f
4:12pm 14 18 mph 1013.4mb 56f
4:06pm 14 18 mph 1013.5mb 56f
4:00pm 11 16 mph 1013.6mb 56f
3:54pm 11 15 mph 1013.6mb 56f
3:48pm 11 16 mph 1013.6mb -
3:42pm 14 16 mph 1013.7mb 56f
3:36pm 13 18 mph 1013.8mb 56f
3:30pm 14 18 mph 1013.8mb 56f
3:24pm 15 17 mph 1014mb 56f
3:18pm 13 15 mph 1014mb 56f
3:12pm 10 15 mph 1014.1mb 56f
3:06pm 11 16 mph 1014.2mb 56f
3:00pm 10 16 mph 1014.1mb 56f
2:18pm 9 11 mph 1014.1mb 56f
2:12pm 9 13 mph 1014.2mb 56f
2:06pm 11 13 mph 1014.2mb 56f
2:00pm 9 13 mph 1014.2mb 56f
1:54pm 10 14 mph 1014.2mb 56f
1:48pm 10 13 mph 1014.3mb 56f
1:42pm 10 14 mph 1014.4mb 56f
1:36pm 13 16 mph 1014.4mb 56f
1:30pm 14 15 mph 1014.4mb 56f
1:24pm 11 15 mph 1014.5mb 56f
1:18pm 11 14 mph 1014.5mb 56f
1:12pm 10 13 mph 1014.5mb 56f
1:06pm 8 10 mph 1014.5mb 56f
1:00pm 7 8 mph 1014.5mb 56f
12:54pm 6 8 mph 1014.5mb 56f
12:48pm 6 7 mph 1014.5mb 56f
12:42pm 5 7 mph 1014.5mb 56f
12:36pm 5 7 mph 1014.4mb 56f
12:30pm 6 7 mph 1014.4mb 56f
12:24pm 3 6 mph 1014.4mb 56f
12:18pm 1 5 mph 1014.4mb 56f
12:12pm 2 3 mph 1014.5mb 56f
12:06pm  -  2 mph 1014.5mb 56f
12:00pm 1 3 mph 1014.5mb 56f
11:54am 2 6 mph 1014.6mb 56f
11:48am 5 6 mph 1014.6mb 56f
11:42am 3 6 mph 1014.6mb 56f
11:36am 6 8 mph 1014.6mb 56f
11:30am 8 9 mph 1014.6mb 56f
11:24am 7 10 mph 1014.6mb 56f
11:18am 10 11 mph 1014.7mb 56f
11:12am 9 11 mph 1014.7mb 56f
11:06am 10 11 mph 1014.6mb 56f
11:00am 8 10 mph 1014.6mb 56f
10:54am 8 9 mph 1014.6mb 56f
10:48am 6 10 mph 1014.6mb 56f
10:42am 7 11 mph 1014.5mb 56f
10:36am 7 8 mph 1014.4mb 56f
10:30am 8 10 mph 1014.4mb 56f
10:24am 6 9 mph 1014.4mb 56f
10:18am 8 10 mph 1014.5mb 56f
10:12am 8 11 mph 1014.5mb 56f
10:06am 10 11 mph 1014.5mb 56f
10:00am 8 13 mph 1014.5mb 55f